Weather Service Report


576 
ASUS44 KEWX 240311
RWRTX 
SOUTH TEXAS REGIONAL WEATHER ROUNDUP
NATIONAL WEATHER SERVICE AUSTIN/SAN ANTONIO TX
900 PM CST MON JAN 23 2017

NOTE: "FAIR" INDICATED FEW OR NO CLOUDS BELOW 12,000 FEET WITH NO
SIGNIFICANT WEATHER AND/OR OBSTRUCTIONS TO VISIBILITY.

* - THESE STATIONS ARE NOT NWS OR FAA STATIONS...AND ARE NOT SUBJECT
    TO NWS AND FAA QUALITY CONTROL.
 
TXZ171-172-183>190-240400-
TEXAS HILL COUNTRY AND EDWARDS PLATEAU
  
CITY           SKY/WX    TMP DP  RH WIND       PRES   REMARKS
JUNCTION       CLEAR     58  36  43 S5        29.83F                  
*LLANO         CLEAR     50  39  66 CALM      29.86S                  
BURNET         CLEAR     56  36  47 S3        29.86R                  
*HORSESHOE BAY CLEAR     62  33  33 S6        29.84R                  
*KERRVILLE     CLEAR     51  38  61 CALM      29.86F                  
*FREDERICKSBRG CLEAR     49  35  57 CALM      29.86S                  
*ROCKSPRINGS   CLEAR     57  34  41 S3        29.86F                  
*BOERNE STAGE  CLEAR     46  36  66 CALM      29.88S                  
*CASTROVILLE   CLEAR     56  32  39 CALM      29.86S                  
HONDO          CLEAR     54  33  45 E5        29.84S                  
*UVALDE        CLEAR     60  32  35 E7        29.83S                  
DEL RIO        CLEAR     65  34  31 E10       29.77S                  
LAUGHLIN AFB   NOT AVBL                                               
CARRIZO SPRGS  CLEAR     61  32  33 SE7       29.81S                  
*EAGLE PASS    CLEAR     64  34  32 SE8       29.78F                  
$$

TXZ173-191>194-202-209-217>225-228-240400-
CENTRAL AND SOUTH CENTRAL TEXAS
  
CITY           SKY/WX    TMP DP  RH WIND       PRES   REMARKS
GEORGETOWN     CLEAR     52  36  54 CALM      29.84R                  
AUSTIN/BERGSTM CLEAR     55  37  50 S7        29.84R                  
AUSTIN/MABRY   CLEAR     60  35  39 CALM      29.85R                  
*AUSTIN/EXEC   CLEAR     57  34  41 CALM      29.85S                  
*LAGO VISTA    CLEAR     66  32  28 S10G16    29.85R                  
SAN MARCOS     CLEAR     54  36  50 CALM      29.86S                  
NEW BRAUNFELS  CLEAR     56  34  43 S6        29.84S                  
RANDOLPH AFB   CLEAR     55  35  46 CALM      29.85S                  
PT SAN ANTONIO CLEAR     58  34  39 CALM      29.82S                  
SAN ANTONIO    CLEAR     59  36  42 CALM      29.85S                  
STINSON FIELD  CLEAR     56  34  43 CALM      29.83S                  
*PLEASANTON    CLEAR     58  33  39 CALM      29.85S                  
*LA GRANGE     CLEAR     58  40  50 S5        29.85R                  
*GIDDINGS      CLEAR     55  39  55 S5        29.86S                  
*GONZALES      CLEAR     60  37  43 SE7       29.85F                  
$$

TXZ163>164-176>182-195>201-210>213-226-227-235-240400-
SOUTHEAST TEXAS
  
CITY           SKY/WX    TMP DP  RH WIND       PRES   REMARKS
COLLEGE STN    CLEAR     57  39  51 SE7       29.85F                  
*BRYAN         CLEAR     53  39  58 SE5       29.86F                  
*CALDWELL      NOT AVBL                                               
*CROCKETT      CLEAR     48  37  66 CALM      29.88F                  
*BRENHAM       CLEAR     59  42  53 CALM      29.88R                  
HUNTSVILLE     CLEAR     57  37  47 S3        29.86F                  
CONROE         CLEAR     47  44  90 CALM      29.88S                  
HOUSTON BUSH   CLEAR     56  41  57 S5        29.88F                  
HOUSTON HOBBY  CLEAR     58  43  57 S7        29.89S                  
*HOUSTON SW AP CLEAR     53  45  72 S5        29.91R                  
PEARLAND       CLEAR     59  43  55 S5        29.91S                  
HOUSTON HOOKS  CLEAR     53  45  74 CALM      29.88S                  
ELLINGTON FLD  CLEAR     63  39  42 S6        29.92S                  
SUGAR LAND     CLEAR     56  45  66 S6        29.89R                  
*HOUSTON EXEC  CLOUDY    52  45  76 S8        29.90S                  
*CLEVELAND MUN CLEAR     47  46  94 CALM      29.89F                  
*WHARTON       CLEAR     55  48  76 S7        29.90S                  
*COLUMBUS      FAIR      57  49  73 S6        29.89R                  
*EAGLE LAKE    CLEAR     60  52  75 S7        29.89R                  
$$

TXZ214>216-236>238-240400-
THE UPPER TEXAS COAST
  
CITY           SKY/WX    TMP DP  RH WIND       PRES   REMARKS
*ORANGE        CLEAR     48  44  85 CALM      29.91F                  
PORT ARTHUR    CLEAR     56  43  61 SW5       29.90S                  
GALVESTON      CLEAR     60  53  77 S6        29.92S                  
ANGLETON       CLEAR     55  49  80 S3        29.91S                  
*BAY CITY      CLEAR     55  52  89 S6        29.91S                  
PALACIOS         N/A     58  53  84 S7        29.90S                  
$$

TXZ229>234-239>247-240400-
TEXAS COASTAL BEND AND RIO GRANDE PLAINS
  
CITY           SKY/WX    TMP DP  RH WIND       PRES   REMARKS
VICTORIA       CLEAR     56  48  74 S7        29.89S                  
*BEEVILLE      CLEAR     57  44  62 SE6       29.88S                  
ROCKPORT         N/A     64  54  69 S9        29.89S                  
*PORT ARANSAS  CLEAR     64  56  76 S9        29.89F                  
*PORT LAVACA   CLEAR     57  53  86 S8        29.89F                  
*INGLESIDE     CLEAR     60  55  84 S6        29.89S                  
CORPUS CHRISTI CLEAR     61  49  64 S13       29.88F                  
CORPUS NAS     CLEAR     62  54  74 S13       29.89F                  
*ROBSTOWN      CLEAR     63  48  58 S13       29.89S                  
ALICE          CLEAR     60  40  47 S10       29.87S                  
KINGSVILLE NAS CLEAR     57  44  62 S10       29.88S                  
COTULLA        CLEAR     66  28  24 SE7       29.83S                  
*FAITH RANCH   CLEAR     70  28  21 SE13G18   29.81S                  
LAREDO         CLEAR     69  29  22 SE12      29.84S                  
$$

TXZ248>255-240400-
DEEP SOUTH TEXAS
  
CITY           SKY/WX    TMP DP  RH WIND       PRES   REMARKS
BROWNSVILLE    CLEAR     58  52  80 S8        29.93R                  
PORT ISABEL    CLEAR     61  54  77 S6        29.92S                  
*SOUTH PADRE   NOT AVBL                                               
HARLINGEN      CLEAR     55  46  71 SE8       29.91R                  
*HEBBRONVILLE  CLEAR     62  30  29 S7        29.88S                  
MCALLEN        CLEAR     65  44  46 SE10      29.92R                  
*WESLACO       CLEAR     62  44  52 S8        29.91R                  
FALFURRIAS     CLEAR     62  38  42 SE9       29.88S                  
EDINBURG       CLEAR     65  35  32 S8        29.91R                  
*ZAPATA        CLEAR     67  28  23 SE9       29.85S                  
$$

TXZ213>215-236>238-242>244-246-247-251-254-255-240400-
CMAN STATIONS
  
STATION/POSITION TIME  TEMP    WIND        PRES    WAVE
                       AIR SEA DIR/SP/G            HT/PER
                 (UTC) (F)     (DEG/KT/KT) (MB)    (FT/S)
SABINE PASS      0248   57 64  210/  4/  7 1013.8
SEA RIM ST PARK  0200   62     220/  7/  8 1013.2
NORTH JETTY/GLS  0242   64 62  190/  8/ 11   N/A
EAGLE POINT      0248   60 63  220/  9/ 10 1012.4
MORGANS POINT    0248   62 64  170/  5/  8 1012.3
PORT O'CONNOR    0248   63     180/ 11/ 13 1012.0
PORT ARANSAS     0200   65 64  150/ 11/ 12 1012.5
MALAQUITE BEACH  0248   65 64  150/ 15/ 16 1012.6
BAFFIN BAY       0248   64 65  150/ 13/ 16 1012.2
PORT ISABEL      0248   67 66  150/ 10/ 13 1013.0
$$

GMZ080-GMZ150>470-240400-
OFFSHORE BUOY REPORTS
  
STATION/POSITION TIME  TEMP    WIND        PRES    WAVE
                       AIR SEA DIR/SP/G            HT/PER
                 (UTC) (F)     (DEG/KT/KT) (MB)    (FT/S)
20 E GALVESTON   0250   65 66  230/ 12/ 14 1012.6    1/ 3
90 E PT ARANSAS  0250   69 70  180/ 10/ 10 1013.3    1/ 3
35 NE PT MANSFLD 0250   70     170/ 16/ 19 1012.2    2/ 3
200 E PT ISABEL  0250   70 74  300/  4/  6 1014.6    4/ 7
$$
  


577 
ASUS44 KEWX 240311
RWREWX
SOUTH TEXAS REGIONAL WEATHER ROUNDUP
NATIONAL WEATHER SERVICE AUSTIN/SAN ANTONIO TX
900 PM CST MON JAN 23 2017

NOTE: "FAIR" INDICATED FEW OR NO CLOUDS BELOW 12,000 FEET WITH NO
SIGNIFICANT WEATHER AND/OR OBSTRUCTIONS TO VISIBILITY.

* - THESE STATIONS ARE NOT NWS OR FAA STATIONS...AND ARE NOT SUBJECT
    TO NWS AND FAA QUALITY CONTROL.
 
TXZ171-172-183>190-240400-
TEXAS HILL COUNTRY AND EDWARDS PLATEAU
  
CITY           SKY/WX    TMP DP  RH WIND       PRES   REMARKS
JUNCTION       CLEAR     58  36  43 S5        29.83F                  
*LLANO         CLEAR     50  39  66 CALM      29.86S                  
BURNET         CLEAR     56  36  47 S3        29.86R                  
*HORSESHOE BAY CLEAR     62  33  33 S6        29.84R                  
*KERRVILLE     CLEAR     51  38  61 CALM      29.86F                  
*FREDERICKSBRG CLEAR     49  35  57 CALM      29.86S                  
*ROCKSPRINGS   CLEAR     57  34  41 S3        29.86F                  
*BOERNE STAGE  CLEAR     46  36  66 CALM      29.88S                  
*CASTROVILLE   CLEAR     56  32  39 CALM      29.86S                  
HONDO          CLEAR     54  33  45 E5        29.84S                  
*UVALDE        CLEAR     60  32  35 E7        29.83S                  
DEL RIO        CLEAR     65  34  31 E10       29.77S                  
LAUGHLIN AFB   NOT AVBL                                               
CARRIZO SPRGS  CLEAR     61  32  33 SE7       29.81S                  
*EAGLE PASS    CLEAR     64  34  32 SE8       29.78F                  
$$

TXZ173-191>194-202-209-217>225-228-240400-
CENTRAL AND SOUTH CENTRAL TEXAS
  
CITY           SKY/WX    TMP DP  RH WIND       PRES   REMARKS
GEORGETOWN     CLEAR     52  36  54 CALM      29.84R                  
AUSTIN/BERGSTM CLEAR     55  37  50 S7        29.84R                  
AUSTIN/MABRY   CLEAR     60  35  39 CALM      29.85R                  
*AUSTIN/EXEC   FAIR      57  34  41 CALM      29.85S                  
*LAGO VISTA    CLEAR     66  32  28 S10G16    29.85R                  
SAN MARCOS     CLEAR     54  36  50 CALM      29.86S                  
NEW BRAUNFELS  CLEAR     56  34  43 S6        29.84S                  
RANDOLPH AFB   CLEAR     55  35  46 CALM      29.85S                  
PT SAN ANTONIO CLEAR     58  34  39 CALM      29.82S                  
SAN ANTONIO    CLEAR     59  36  42 CALM      29.85S                  
STINSON FIELD  CLEAR     56  34  43 CALM      29.83S                  
*PLEASANTON    CLEAR     58  33  39 CALM      29.85S                  
*LA GRANGE     CLEAR     58  40  50 S5        29.85R                  
*GIDDINGS      CLEAR     55  39  55 S5        29.86S                  
*GONZALES      CLEAR     60  37  43 SE7       29.85F                  
$$

TXZ163>164-176>182-195>201-210>213-226-227-235-240400-
SOUTHEAST TEXAS
  
CITY           SKY/WX    TMP DP  RH WIND       PRES   REMARKS
COLLEGE STN    CLEAR     57  39  51 SE7       29.85F                  
*BRYAN         CLEAR     53  39  58 SE5       29.86F                  
*CALDWELL      NOT AVBL                                               
*CROCKETT      CLEAR     48  37  66 CALM      29.88F                  
*BRENHAM       CLEAR     59  42  53 CALM      29.88R                  
HUNTSVILLE     CLEAR     57  37  47 S3        29.86F                  
CONROE         CLEAR     47  44  90 CALM      29.88S                  
HOUSTON BUSH   CLEAR     56  41  57 S5        29.88F                  
HOUSTON HOBBY  CLEAR     58  43  57 S7        29.89S                  
*HOUSTON SW AP CLEAR     53  45  72 S5        29.91R                  
PEARLAND       CLEAR     59  43  55 S5        29.91S                  
HOUSTON HOOKS  CLEAR     53  45  74 CALM      29.88S                  
ELLINGTON FLD  CLEAR     63  39  42 S6        29.92S                  
SUGAR LAND     CLEAR     56  45  66 S6        29.89R                  
*HOUSTON EXEC  CLOUDY    52  45  76 S8        29.90S                  
*CLEVELAND MUN CLEAR     47  46  94 CALM      29.89F                  
*WHARTON       CLEAR     55  48  76 S7        29.90S                  
*COLUMBUS      FAIR      57  49  73 S6        29.89R                  
*EAGLE LAKE    CLEAR     60  52  75 S7        29.89R                  
$$

TXZ214>216-236>238-240400-
THE UPPER TEXAS COAST
  
CITY           SKY/WX    TMP DP  RH WIND       PRES   REMARKS
*ORANGE        CLEAR     48  44  85 CALM      29.91F                  
PORT ARTHUR    CLEAR     56  43  61 SW5       29.90S                  
GALVESTON      CLEAR     60  53  77 S6        29.92S                  
ANGLETON       CLEAR     55  49  80 S3        29.91S                  
*BAY CITY      CLEAR     55  52  89 S6        29.91S                  
PALACIOS         N/A     58  53  84 S7        29.90S                  
$$

TXZ229>234-239>247-240400-
TEXAS COASTAL BEND AND RIO GRANDE PLAINS
  
CITY           SKY/WX    TMP DP  RH WIND       PRES   REMARKS
VICTORIA       CLEAR     56  48  74 S7        29.89S                  
*BEEVILLE      CLEAR     57  44  62 SE6       29.88S                  
ROCKPORT         N/A     64  54  69 S9        29.89S                  
*PORT ARANSAS  CLEAR     64  56  76 S9        29.89F                  
*PORT LAVACA   CLEAR     57  53  86 S8        29.89F                  
*INGLESIDE     CLEAR     60  55  84 S6        29.89S                  
CORPUS CHRISTI CLEAR     61  49  64 S13       29.88F                  
CORPUS NAS     CLEAR     62  54  74 S13       29.89F                  
*ROBSTOWN      CLEAR     63  48  58 S13       29.89S                  
ALICE          CLEAR     60  40  47 S10       29.87S                  
KINGSVILLE NAS CLEAR     57  44  62 S10       29.88S                  
COTULLA        CLEAR     66  28  24 SE7       29.83S                  
*FAITH RANCH   CLEAR     70  28  21 SE13G18   29.81S                  
LAREDO         CLEAR     69  29  22 SE12      29.84S                  
$$

TXZ248>255-240400-
DEEP SOUTH TEXAS
  
CITY           SKY/WX    TMP DP  RH WIND       PRES   REMARKS
BROWNSVILLE    CLEAR     58  52  80 S8        29.93R                  
PORT ISABEL    CLEAR     61  54  77 S6        29.92S                  
*SOUTH PADRE   NOT AVBL                                               
HARLINGEN      CLEAR     55  46  71 SE8       29.91R                  
*HEBBRONVILLE  CLEAR     62  30  29 S7        29.88S                  
MCALLEN        CLEAR     65  44  46 SE10      29.92R                  
*WESLACO       CLEAR     62  44  52 S8        29.91R                  
FALFURRIAS     CLEAR     62  38  42 SE9       29.88S                  
EDINBURG       CLEAR     65  35  32 S8        29.91R                  
*ZAPATA        CLEAR     67  28  23 SE9       29.85S                  
$$

TXZ213>215-236>238-242>244-246-247-251-254-255-240400-
CMAN STATIONS
  
STATION/POSITION TIME  TEMP    WIND        PRES    WAVE
                       AIR SEA DIR/SP/G            HT/PER
                 (UTC) (F)     (DEG/KT/KT) (MB)    (FT/S)
SABINE PASS      0248   57 64  210/  4/  7 1013.8
SEA RIM ST PARK  0200   62     220/  7/  8 1013.2
NORTH JETTY/GLS  0242   64 62  190/  8/ 11   N/A
EAGLE POINT      0248   60 63  220/  9/ 10 1012.4
MORGANS POINT    0248   62 64  170/  5/  8 1012.3
PORT O'CONNOR    0248   63     180/ 11/ 13 1012.0
PORT ARANSAS     0200   65 64  150/ 11/ 12 1012.5
MALAQUITE BEACH  0248   65 64  150/ 15/ 16 1012.6
BAFFIN BAY       0248   64 65  150/ 13/ 16 1012.2
PORT ISABEL      0248   67 66  150/ 10/ 13 1013.0
$$
  

Return to Home page


Western Regional Climate Center, wrcc@dri.edu